Location: Austin
(30.3000°N, 97.7500°W)
Time: 05:55:25
(UTC-06:00)

Cosmos-2242 - Pass Details

Date: 03 March 2026
Orbit: 567 x 588 km, 82.5° (Epoch: 6 March)

Event Time Altitude Azimuth Distance (km) Brightness Sun altitude
Rises 19:01:29 0° 3° (N) 2,818 6.4 -7.3°
Reaches altitude 10° 19:03:48 10° 11° (NNE) 1,916 5.4 -7.8°
Maximum altitude 19:07:47 39° 81° (E) 891 3.4 -8.6°
Drops below altitude 10° 19:11:43 10° 151° (SSE) 1,905 5.3 -9.5°
Sets 19:14:01 0° 159° (SSE) 2,800 6.2 -10.0°
